Location: Apthorp Dam
(44.3084°N, 71.7462°W)
Time: 11:46:57
(UTC+00:00)

Tiangong - Visible Passes

Search period start: 11 October 2024 00:00
Search period end: 21 October 2024 00:00
Orbit: 372 x 377 km, 41.5° (Epoch: 11 October)

Date Brightness Start Highest point End Pass type
(mag) Time Alt. Az. Time Alt. Az. Time Alt. Az.
16 Oct 0.8 10:20:37 10° S 10:21:53 12° SSE 10:23:10 10° SE visible
18 Oct 0.3 09:48:19 10° SSW 09:50:22 17° SSE 09:52:25 10° ESE visible
19 Oct -0.7 10:19:35 10° SW 10:22:22 32° SSE 10:25:09 10° E visible
20 Oct -0.3 09:18:03 22° SSE 09:18:11 22° SSE 09:20:37 10° ESE visible
